Probability
0 0 0 0 0 1 2 4 4 4 5 4 3 3 3 1 0 0 0 0 0 0 0 0 0 0 0 0 0 0 0 1 1 1 0 0 0 0 0 0 0 0 0
0 0 0 0 0 0 1 3 3 4 5 4 3 3 3 2 1 0 0 0 0 0 0 0 0 0 0 0 0 0 0 0 0 0 0 0 0 0 0 0 0 0 0
0 0 0 0 0 0 1 1 2 3 4 4 3 3 3 2 1 0 0 0 0 0 0 0 0 0 0 0 0 0 0 0 0 0 0 0 0 0 0 0 0 0 0
0 0 0 0 0 0 0 0 0 1 3 3 3 3 3 2 1 0 0 0 0 0 0 0 0 0 0 0 0 0 0 0 0 0 0 0 0 0 0 0 0 0 0
0 0 0 0 0 0 0 0 0 0 1 2 3 3 2 1 0 0 0 0 0 0 0 0 0 0 0 0 0 0 0 0 0 0 0 0 0 0 0 0 0 0 0
0 0 0 0 0 0 0 0 0 0 0 1 2 2 1 0 0 0 0 0 0 0 0 0 0 0 0 0 0 0 0 0 0 0 0 0 0 0 0 0 0 0 0
0 0 0 0 0 0 0 0 0 0 0 0 1 1 0 0 0 0 0 0 0 0 0 0 0 0 0 0 0 0 0 0 0 0 0 0 0 0 0 0 0 0 0
0 0 0 0 0 0 0 0 0 0 0 0 0 0 0 0 0 0 0 0 0 0 0 0 0 0 0 0 0 0 0 0 0 0 0 0 0 0 0 0 0 0 0
0 0 0 0 0 0 0 0 0 0 0 0 0 0 0 0 0 0 0 0 0 0 0 0 0 0 0 0 0 0 0 0 0 0 0 0 0 0 0 0 0 0 0
0 0 0 0 0 0 0 0 0 0 0 0 0 0 0 0 0 0 0 0 0 0 0 0 0 0 0 0 0 0 0 0 0 0 0 0 0 0 0 0 0 0 0
0 0 0 0 0 0 0 0 0 0 0 0 0 0 0 0 0 0 0 0 0 0 0 0 0 0 0 0 0 0 0 0 0 0 0 0 0 0 0 0 0 0 0
0 0 0 0 0 0 0 0 0 0 0 0 0 0 0 0 0 0 0 0 0 0 0 0 0 0 0 0 0 0 0 0 0 0 0 0 0 0 0 0 0 0 0
0 0 0 0 0 0 0 0 0 0 0 0 0 0 0 0 0 0 0 0 0 0 0 0 0 0 0 0 0 0 0 0 0 0 0 0 0 0 0 0 0 0 0
0 0 0 0 0 0 0 0 0 0 0 0 0 0 0 0 0 0 0 0 0 0 0 0 0 0 0 0 0 0 0 0 0 0 0 0 0 0 0 0 0 0 0
0 0 0 0 0 0 0 0 0 0 0 0 0 0 0 0 0 0 0 0 0 0 0 0 0 0 0 0 0 0 0 0 0 0 0 0 0 0 0 0 0 0 0
0 0 0 0 0 0 0 0 0 0 0 0 0 0 0 0 0 0 0 0 0 0 0 0 0 0 0 0 0 0 0 0 0 0 0 0 0 0 0 0 0 0 0
0 0 0 0 0 0 0 0 0 0 0 0 0 0 0 0 0 0 0 0 0 0 0 0 0 0 0 0 0 0 0 0 0 0 0 0 0 0 0 0 0 0 0
0 0 0 0 0 0 0 0 0 0 0 0 0 0 0 0 0 0 0 0 0 0 0 0 0 0 0 0 0 0 0 0 0 0 0 0 0 0 0 0 0 0 0
0 0 0 0 0 0 0 0 0 0 0 0 0 0 0 0 0 0 0 0 0 0 0 0 0 0 0 0 0 0 0 0 0 0 0 0 0 0 0 0 0 0 0
0 0 0 0 0 0 0 0 0 0 0 0 0 0 0 0 0 0 0 0 0 0 0 0 0 0 0 0 0 0 0 0 0 0 0 0 0 0 0 0 0 0 0
0 0 0 0 0 0 0 0 0 0 0 0 0 0 0 0 0 0 0 0 0 0 0 0 0 0 0 0 0 0 0 0 0 0 0 0 0 0 0 0 0 0 0
0 0 0 0 0 0 0 0 0 0 0 0 0 0 0 0 0 0 0 0 0 0 0 0 0 0 0 0 0 0 0 0 0 0 0 0 0 0 0 0 0 0 0
0 0 0 0 0 0 0 0 0 0 0 0 0 0 0 0 0 0 0 0 0 0 0 0 0 0 0 0 0 0 0 0 0 0 0 0 0 0 0 0 0 0 0
0 0 0 0 0 0 0 0 0 0 0 0 0 0 0 0 0 0 0 0 0 0 0 0 0 0 0 0 0 0 0 0 0 0 0 0 0 0 0 0 0 0 0
0 0 0 0 0 0 0 0 0 0 0 0 0 0 0 0 0 0 0 0 0 0 0 0 0 0 0 0 0 0 0 0 0 0 0 0 0 0 0 0 0 0 0
0 0 0 0 0 0 0 0 0 0 0 0 0 0 0 0 0 0 0 0 0 0 0 0 0 0 0 0 0 0 0 0 0 0 0 0 0 0 0 0 0 0 0
Wind_Speed
5 5 6 7 7 8 9 10 10 10 8 6 6 5 5 4 3 3 3 3 3 3 2 2 1 1 1 1 1 1 1 2 2 2 2 1 2 2 2 3 3 4 5
4 5 5 6 7 9 10 10 11 11 10 7 6 4 4 4 3 3 3 3 3 3 2 2 1 1 1 1 1 1 1 1 2 3 3 2 1 1 2 3 4 5 5
5 5 6 7 7 8 10 9 11 11 10 9 6 5 4 4 4 4 3 3 3 3 2 2 1 1 1 0 0 0 1 1 1 2 3 3 3 4 2 3 4 5 5
4 5 6 6 7 7 7 9 10 10 10 10 9 9 6 6 5 4 4 4 3 3 3 2 2 1 1 1 0 0 1 1 1 1 1 2 3 4 4 3 4 6 6
4 5 5 6 6 6 6 7 9 10 10 10 9 9 7 5 4 5 5 4 4 3 3 3 2 2 1 1 0 0 0 1 1 1 1 2 2 4 4 6 6 6 5
3 3 3 4 4 5 6 6 9 10 10 10 9 9 9 7 7 7 6 4 3 3 3 3 2 2 1 1 1 1 1 1 1 1 1 2 3 3 4 6 7 7 6
2 3 3 3 4 5 6 7 8 9 10 10 9 9 9 8 8 7 6 5 4 3 4 3 3 2 2 2 1 1 1 2 2 2 2 2 3 4 4 6 7 8 7
1 2 3 3 4 5 6 7 8 8 9 10 9 8 8 6 5 6 5 5 4 4 4 4 3 3 2 2 2 2 2 2 2 2 3 3 3 3 4 5 6 8 7
1 1 2 2 3 4 6 7 7 8 8 9 9 8 8 7 6 6 5 4 4 3 4 4 4 3 3 3 2 2 2 2 2 3 3 3 3 4 4 5 5 6 8
0 0 1 1 2 3 4 5 6 7 7 8 7 6 7 7 6 5 5 5 4 4 4 4 4 3 3 3 3 2 2 3 3 3 4 4 3 4 4 5 5 6 7
0 0 0 1 1 2 3 4 5 5 6 6 6 7 6 6 6 5 5 5 4 4 4 4 4 3 3 3 3 3 3 3 3 3 4 5 5 4 4 5 5 5 6
1 0 1 1 1 2 2 3 4 4 5 5 5 6 6 6 6 5 5 5 5 4 4 4 4 3 3 3 3 3 3 4 4 4 5 5 4 6 5 5 6 6 7
1 1 1 1 1 2 2 2 2 3 4 4 4 5 6 6 6 5 5 5 4 4 4 4 4 3 3 3 3 3 4 4 4 5 5 6 6 6 5 6 6 6 6
1 1 1 1 1 1 1 2 2 2 3 3 4 4 6 6 5 5 5 4 4 4 4 3 3 3 3 3 3 3 4 4 4 5 5 6 6 7 7 6 7 7 7
1 1 1 1 1 1 0 1 1 1 2 3 3 4 4 5 5 5 4 4 4 4 3 3 2 2 2 2 3 3 4 4 4 5 5 6 6 8 7 6 7 7 6
2 1 1 1 1 0 0 1 1 1 1 2 2 3 4 4 4 4 4 4 4 3 3 3 3 2 2 2 3 3 3 4 4 5 5 5 6 7 9 10 10 9 8
2 2 1 1 1 1 0 1 1 1 1 2 2 2 3 4 4 4 4 4 4 3 3 3 3 3 2 2 3 4 3 4 4 5 5 5 5 7 6 7 9 9 10
3 2 2 1 1 1 0 1 1 2 2 2 1 2 3 3 4 4 4 4 3 3 2 2 2 2 2 2 2 3 3 3 4 4 5 6 6 5 7 7 7 8 7
3 2 2 1 1 0 0 1 2 1 1 1 1 2 3 3 3 4 4 3 3 2 2 2 2 2 2 1 2 3 3 3 4 4 5 5 6 7 9 7 7 8 7
2 2 1 0 0 0 1 1 1 1 1 1 1 2 2 3 3 3 3 3 2 2 2 1 2 2 2 1 2 3 2 3 3 4 4 5 6 8 9 7 7 7 8
2 2 1 0 0 0 1 1 1 1 0 0 1 1 2 2 3 3 2 3 2 2 2 1 1 1 1 1 2 3 2 3 3 3 3 3 6 8 8 8 6 7 9
2 2 1 1 1 1 1 1 1 0 1 1 1 1 2 2 2 3 2 2 2 2 1 1 0 0 0 1 2 3 4 4 3 3 3 3 6 8 8 7 7 8 8
2 2 2 2 1 1 1 1 0 1 2 2 2 2 2 2 2 2 2 2 2 2 1 1 0 0 1 1 2 2 3 4 3 3 4 5 6 7 5 5 7 6 4
2 2 2 1 1 1 1 1 1 1 2 2 2 2 2 2 2 1 1 1 1 2 1 1 0 1 1 1 1 1 2 3 3 2 3 5 5 4 5 5 4 3 3
2 2 2 2 2 2 2 2 1 2 2 2 2 2 2 2 2 1 1 0 0 0 1 1 1 1 1 2 3 3 2 2 2 3 2 2 3 3 3 3 4 4 4
2 2 2 2 2 2 2 1 1 1 2 2 2 2 2 1 1 2 2 3 2 2 2 1 1 1 2 3 3 3 4 4 3 2 1 2 2 3 3 4 4 4 4
Wind_Direction
206 191 188 183 182 180 181 178 173 168 163 160 161 158 157 153 149 145 143 148 144 141 134 126 122 117 89 56 38 28 22 8 339 308 313 289 272 295 308 311 318 321 322
193 187 184 182 184 182 183 183 180 175 175 175 167 159 150 154 149 147 151 157 155 151 149 146 144 138 127 98 57 19 352 8 348 320 307 303 265 262 306 306 311 316 319
208 198 192 189 187 187 188 187 184 180 179 171 155 141 138 144 158 165 163 169 168 162 163 168 159 154 182 160 57 335 319 338 358 344 320 311 314 319 286 305 306 314 316
219 207 201 199 196 191 189 190 186 183 178 173 172 169 175 177 178 170 167 166 172 171 173 176 177 175 185 178 190 298 305 288 313 347 335 316 313 301 304 296 304 313 312
225 215 210 206 198 188 183 186 186 183 178 181 182 182 184 180 165 164 168 169 170 177 179 181 182 186 191 187 195 211 255 276 288 298 299 288 282 278 287 297 307 310 309
221 215 207 199 190 181 178 178 185 183 181 183 185 188 186 180 171 174 173 176 174 179 182 186 189 192 192 192 206 216 227 247 259 270 273 281 284 295 293 293 303 307 308
197 198 191 192 187 183 182 182 184 184 183 184 187 188 189 187 184 181 181 181 181 186 189 190 194 194 195 196 203 218 230 236 248 261 271 274 279 286 288 287 295 301 302
197 205 198 194 191 186 185 185 185 185 184 184 186 187 189 190 189 188 185 189 189 189 187 193 198 200 201 202 206 219 233 243 251 263 270 273 276 278 279 284 294 298 296
220 210 199 191 190 185 186 187 184 184 185 184 184 186 187 189 188 187 189 189 186 182 186 193 197 197 203 210 215 227 234 250 261 266 271 276 278 277 279 279 281 287 296
244 177 186 186 188 181 180 180 180 181 183 183 183 183 185 187 186 185 187 186 183 179 182 189 192 194 201 208 219 234 243 256 264 270 274 279 279 279 277 274 273 273 280
273 129 157 167 167 155 161 166 172 172 177 181 180 180 180 182 184 185 186 184 178 179 184 187 189 194 204 213 224 239 247 258 269 271 275 281 282 280 279 276 272 271 274
336 35 99 121 131 139 146 157 167 169 174 176 177 179 175 177 181 182 183 180 177 179 183 184 189 197 208 219 231 245 250 261 271 277 280 283 283 281 282 281 278 277 277
15 34 61 111 124 132 139 149 160 163 166 170 171 174 174 176 181 180 178 177 176 177 179 185 194 203 214 227 240 253 256 262 270 275 279 283 284 283 286 286 285 284 284
20 29 28 78 102 121 139 147 149 154 161 164 169 175 178 179 179 176 176 176 178 178 181 190 199 209 219 230 243 257 262 268 275 277 278 280 281 284 289 289 290 292 293
351 356 351 11 38 77 124 139 136 141 153 163 170 178 178 174 171 170 172 173 177 179 182 188 196 208 219 229 254 265 266 271 279 282 281 280 287 292 291 292 297 298 294
323 329 325 325 331 3 188 164 149 140 150 161 168 168 170 170 170 170 169 172 175 176 180 189 197 210 223 247 268 279 267 271 276 285 290 290 285 290 290 293 297 297 292
310 305 289 279 288 289 255 203 166 150 150 148 152 164 168 172 172 170 172 177 177 177 186 193 200 219 235 244 265 284 278 273 278 286 293 298 298 297 295 297 296 294 288
295 294 298 308 307 308 304 159 152 150 153 152 157 169 168 170 174 175 178 182 181 182 189 199 207 227 243 254 276 288 276 280 284 286 290 296 304 308 307 306 304 302 299
297 291 285 294 281 284 46 140 146 148 157 166 176 175 175 172 178 183 181 180 179 183 193 204 210 233 246 259 293 296 282 281 289 292 293 296 300 312 314 309 306 306 309
325 324 321 356 141 100 119 144 150 155 172 187 189 176 180 181 185 185 176 172 176 184 187 201 215 233 250 272 289 296 278 283 293 297 296 298 305 313 313 309 306 307 314
339 347 358 26 53 112 142 148 151 167 162 136 143 152 169 178 176 170 164 159 160 168 179 192 216 238 266 249 271 291 286 285 293 298 301 307 314 315 314 310 304 309 315
4 7 13 27 41 103 140 144 146 132 115 123 128 135 146 154 164 155 149 152 155 161 168 167 158 290 293 296 292 299 308 312 298 301 308 317 321 321 318 316 321 322 317
5 14 38 48 48 66 94 115 90 127 128 125 123 122 121 128 144 145 143 149 154 160 160 158 166 329 323 322 324 324 329 329 319 317 327 326 323 321 321 336 336 329 323
4 14 36 42 38 36 38 53 102 135 136 132 122 120 121 119 118 119 131 146 159 162 162 168 212 307 318 329 332 322 322 328 327 324 329 334 337 335 338 338 339 337 332
358 9 21 23 21 35 48 54 85 132 132 125 122 123 118 118 112 99 84 95 169 216 194 205 222 258 293 327 333 329 327 321 322 328 335 342 342 345 345 341 340 338 335
359 8 18 24 25 35 47 46 68 131 134 132 128 120 115 114 111 106 81 57 49 36 21 9 329 326 332 334 338 343 347 348 352 348 346 341 338 336 335 333 333 335 336